#timestamp,LO_Frequency,Hit,StdDev 
1545832815.7,286047002.3,N
1545832835.6,286047001.7,N
1545832855.4,286047000.1,N
1545832875.2,286047000.5,N
1545832895.1,286047003.9,Y
1545832896.0,286047003.9,P
1545832915.8,286047003.0,N
1545832935.7,286047004.3,P
1545832955.5,286047006.0,Y
1545832975.3,286047000.2,P
1545832995.2,286047001.1,N
1545833015.0,286046998.3,N
1545833015.9,286046998.3,N
1545833035.8,286046998.2,N
1545833055.6,286047000.2,N
1545833075.4,286047000.6,N
1545833095.3,286046999.7,N
1545833115.1,286046999.8,N
1545833135.8,286047000.2,N
1545833155.7,286047000.4,N
1545833175.5,286047000.9,N
1545833195.4,286046999.0,N
1545833215.2,286046999.9,N
1545833235.0,286047002.0,N
1545833235.9,286047002.0,N
1545833255.8,286047002.3,N
1545833275.6,286047000.7,N
1545833295.4,286047000.9,N
1545833315.3,286046997.0,N
1545833335.1,286046999.5,N
1545833355.8,286046999.1,N
1545833375.7,286046998.3,N
1545833395.5,286046999.1,N
1545833415.4,286046998.5,N
1545833435.2,286047001.1,N
1545833455.0,286046999.4,N
1545833455.9,286046999.4,N
1545833475.8,286046996.5,N
1545833495.6,286046996.5,N
1545833515.4,286046999.0,N
1545833535.3,286046996.7,N
1545833555.1,286046998.2,N
1545833575.9,286047004.2,N
1545833595.7,286047002.3,N
1545833615.5,286047002.2,N
1545833635.4,286047002.8,N
1545833655.2,286046999.7,N
1545833675.0,286047000.2,N
1545833675.9,286047000.2,N
1545833695.8,286046998.9,N
1545833715.6,286046998.9,N
1545833735.5,286046999.4,N
1545833755.3,286046999.1,N
1545833775.1,286046999.0,N
1545833795.9,286046999.5,N
1545833815.7,286046997.0,N
1545833835.5,286046998.0,N
1545833855.4,286046999.2,N
1545833875.2,286046998.6,N
1545833895.0,286046999.5,N
1545833896.0,286046999.5,N
1545833915.8,286046997.0,N
1545833935.6,286046999.2,N
1545833955.5,286046999.3,N
1545833975.3,286046996.5,N
1545833995.1,286046994.9,N
1545834015.9,286046997.3,N
1545834035.7,286046997.4,N
1545834055.5,286046997.6,N
1545834075.4,286046997.9,N
1545834095.2,286046998.0,N
1545834115.1,286046995.4,N
1545834116.0,286046995.4,N
1545834135.8,286046994.9,N
1545834155.6,286046995.1,N
1545834175.5,286046995.3,N
1545834195.3,286046997.7,N
1545834215.1,286046999.1,N
1545834235.9,286046997.7,N
1545834255.7,286046997.5,N
1545834275.6,286046997.7,N
1545834295.4,286046995.3,Y
1545834315.2,286046999.5,P
1545834335.1,286046999.0,N
1545834336.0,286046999.0,N
1545834355.8,286047000.7,N
1545834375.7,286047000.2,N
1545834395.5,286047002.1,N
1545834415.3,286047002.3,N
1545834435.2,286046999.8,N
1545834455.9,286047002.8,N
1545834475.7,286047001.0,N
1545834495.6,286046998.8,N
1545834515.4,286046998.1,N
1545834535.2,286046998.2,N
1545834555.1,286046998.3,N
1545834556.0,286046998.3,N
1545834575.8,286046998.1,N
1545834595.7,286046998.5,N
1545834615.5,286046998.5,N
1545834635.3,286046998.2,N
1545834655.2,286046998.1,N
1545834675.0,286046998.1,N
1545834675.9,286046998.1,N
1545834695.7,286046998.8,N
1545834715.6,286046998.5,N
1545834735.4,286047002.8,N
1545834755.3,286047001.6,N
1545834775.1,286047001.9,N
1545834776.0,286047001.9,N
1545834795.8,286046999.7,N
1545834815.7,286047002.1,N
1545834835.5,286047001.6,N
1545834855.3,286047001.6,N
1545834875.2,286047002.6,N
1545834895.0,286047000.0,N
1545834895.9,286047000.0,N
1545834915.8,286046999.9,N
1545834935.6,286047000.4,N
1545834955.4,286047000.9,N
1545834975.3,286046999.9,N
1545834995.1,286046998.6,N
1545835015.8,286046998.7,N
1545835035.7,286046997.0,N
1545835055.5,286046999.0,N
1545835075.4,286046999.4,N
1545835095.2,286046998.5,N
1545835115.0,286046998.6,N
1545835115.9,286046998.6,N
1545835135.8,286046999.3,N
1545835155.6,286046999.3,N
1545835175.4,286046998.9,N
1545835195.3,286046999.1,N
1545835215.1,286046997.8,N
1545835235.9,286046997.1,N
1545835255.7,286046997.2,N
1545835275.5,286046997.0,N
1545835295.4,286046999.3,N
1545835315.2,286046996.7,N
1545835335.0,286046996.5,N
1545835336.0,286046996.5,N
1545835355.8,286046997.8,N
1545835375.6,286046996.4,N
1545835395.5,286046995.1,Y
1545835415.3,286046997.4,P
1545835435.1,286046999.4,N
1545835455.9,286046996.5,P
1545835475.7,286046998.5,N
1545835495.6,286047001.6,N
1545835515.4,286047002.8,N
1545835535.2,286047000.7,N
1545835555.1,286047000.2,N
1545835556.0,286047000.2,N
1545835575.8,286047001.0,N
1545835595.6,286046998.7,N
1545835615.5,286046997.0,N
1545835635.3,286046999.0,N
1545835655.2,286047001.2,N
1545835675.9,286046998.8,N
1545835695.7,286046998.8,N
1545835715.6,286047000.6,N
1545835735.4,286047000.1,N
1545835755.2,286047000.6,N
1545835775.1,286047002.4,N
1545835776.0,286047002.4,N
1545835795.8,286047001.5,N
1545835815.6,286047004.3,N
1545835835.5,286047004.2,N
1545835855.3,286047002.2,N
1545835875.2,286047004.3,N
1545835895.9,286047000.2,N
1545835915.7,286047000.5,N
1545835935.6,286047003.7,N
1545835955.4,286047002.0,N
1545835975.2,286047004.2,N
1545835995.1,286047001.5,N
1545835996.0,286047001.5,N
1545836015.8,286047003.8,N
1545836035.7,286047004.3,N
1545836055.5,286047000.4,N
1545836075.3,286047000.9,N
1545836095.2,286047000.3,N
1545836115.0,286047000.6,N
1545836115.9,286047000.6,N
1545836135.7,286046999.9,N
1545836155.6,286047001.7,N
1545836175.4,286046999.9,N
1545836195.3,286047000.1,N
1545836215.1,286046999.7,N
1545836216.0,286046999.7,N
1545836235.8,286047000.0,N
1545836255.7,286047001.1,N
1545836275.5,286046998.6,N
1545836295.3,286047000.7,N
1545836315.2,286046998.5,N
1545836335.0,286046998.7,N
1545836335.9,286046998.7,N
1545836355.8,286046998.1,N
1545836375.6,286047000.8,N
1545836395.4,286046999.3,N
